Weather in Stavropol

Russia / Stavropol Krai     45˚02′40″N   41˚58′08″E
temp.,
°C
wind,
m/s
gust,
m/s
humid.,
%
clouds,
%
prec.,
mm/h
press.,
hPa
HPBL,
m
2 december, wed
wed200:00+3˚ese8138784 0.0 1026527
03:00+2˚ese8129075 0.0 1026484
06:00+3˚ese8138895 0.0 1026491
09:00+3˚ese8138792 0.0 1027505
12:00+5˚ese8128098 0.0 1026542
15:00+5˚ese8128195 0.0 1026564
18:00+4˚ese8128696 0.0 1027580
21:00+4˚ese8138796 0.0 1028584
3 december, thu
thu300:00+3˚ese8149072 0.0 1027527
03:00+3˚ese8139078 0.0 1028543
06:00+3˚ese8149092 0.0 1028540
09:00+3˚ese8138893 0.0 1028534
12:00+4˚ese8128398 0.0 1027581
15:00+4˚ese8118394 0.0 1026590
18:00+4˚ese8128497 0.0 1027585
21:00+3˚ese8138994 0.0 1027520
4 december, fri
fri400:00+3˚se8138999 0.0 1027544
03:00+3˚se7128999 0.0 1026538
06:00+3˚ese81288100 0.0 1026581
09:00+4˚ese91484100 0.0 1027662
12:00+5˚ese9137998 0.0 1025706
15:00+5˚ese9148194 0.0 1025750
18:00+4˚ese9148598 0.0 1026777
21:00+4˚ese9148698 0.0 1026748
5 december, sat
sat500:00+3˚ese91487100 0.0 1026724
03:00+3˚ese91489100 0.0 1026733
06:00+2˚ese91489100 0.0 1026665
09:00+2˚ese10158795 0.0 1027695
12:00+3˚ese10158494 0.0 1026726
15:00+3˚ese10148497 0.0 1026760
18:00+2˚e91591100 0.0 1027756
21:00+2˚ese101590100 0.0 1027791
6 december, sun
sun600:00+1˚e101586100 0.0 1027744
03:00+1˚ese9168796 0.0 1028666
06:00ese101687100 0.0 1028687
09:00ese10168794 0.0 1028640
12:00+2˚ese10168079 0.0 1028824
15:00+2˚ese10158488 0.0 1027900
18:00+1˚e101592100 0.0 1028848
21:00+1˚ese101587100 0.1 1028871